Time,TemperatureF,DewpointF,PressureIn,WindDirection,WindDirectionDegrees,WindSpeedMPH,WindSpeedGustMPH,Humidity,HourlyPrecipIn,Conditions,Clouds,dailyrainin,SoftwareType,DateUTC
2013-06-13 16:33:00,64.9,63.8,25.22,North,0,0.0,0.0,96,1.42,,---,0.00,VWS V14.01,2013-06-13 22:33:00,
2013-06-13 16:36:00,64.9,63.8,25.22,North,0,0.0,0.0,96,0.00,,---,0.00,VWS V14.01,2013-06-13 22:36:00,
2013-06-13 16:37:00,64.9,63.8,25.22,North,0,0.0,0.0,96,0.00,,---,0.00,VWS V14.01,2013-06-13 22:37:00,
2013-06-13 16:41:00,64.9,63.8,25.22,North,0,0.0,0.0,96,0.00,,---,0.00,VWS V14.01,2013-06-13 22:41:00,
2013-06-13 16:42:00,64.9,63.8,25.22,North,0,0.0,0.0,96,0.00,,---,0.00,VWS V14.01,2013-06-13 22:42:00,
2013-06-13 16:45:00,65.1,64.0,25.22,North,0,0.0,0.0,96,0.00,,---,0.00,VWS V14.01,2013-06-13 22:45:00,
2013-06-13 16:46:00,65.1,64.0,25.22,North,0,0.0,0.0,96,0.00,,---,0.00,VWS V14.01,2013-06-13 22:46:00,
2013-06-13 16:51:00,64.9,63.8,25.22,North,0,0.0,0.0,96,0.00,,---,0.00,VWS V14.01,2013-06-13 22:51:00,
2013-06-13 16:53:00,64.9,63.8,25.22,North,0,0.0,0.0,96,0.00,,---,0.00,VWS V14.01,2013-06-13 22:53:00,
2013-06-13 16:55:00,64.9,63.8,25.22,North,0,0.0,0.0,96,0.00,,---,0.00,VWS V14.01,2013-06-13 22:55:00,
2013-06-13 16:56:00,64.9,63.8,25.22,North,0,0.0,0.0,96,0.00,,---,0.00,VWS V14.01,2013-06-13 22:56:00,
2013-06-13 16:58:00,64.8,63.6,25.22,North,0,0.0,0.0,96,0.00,,---,0.00,VWS V14.01,2013-06-13 22:58:00,
2013-06-13 17:00:00,64.8,63.6,25.22,North,0,0.0,0.0,96,0.00,,---,0.00,VWS V14.01,2013-06-13 23:00:00,
2013-06-13 17:01:00,64.8,63.6,25.22,North,0,0.0,0.0,96,0.00,,---,0.00,VWS V14.01,2013-06-13 23:01:00,
2013-06-13 17:04:00,64.9,63.8,25.22,North,0,0.0,0.0,96,0.00,,---,0.00,VWS V14.01,2013-06-13 23:04:00,
2013-06-13 17:06:00,64.9,63.8,25.22,North,0,0.0,0.0,96,0.00,,---,0.00,VWS V14.01,2013-06-13 23:06:00,
2013-06-13 17:07:00,64.9,63.8,25.22,North,0,0.0,0.0,96,0.00,,---,0.00,VWS V14.01,2013-06-13 23:07:00,
2013-06-13 17:08:00,64.9,63.8,25.22,North,0,0.0,0.0,96,0.00,,---,0.00,VWS V14.01,2013-06-13 23:08:00,
2013-06-13 17:10:00,64.9,64.1,25.22,North,0,0.0,0.0,97,0.00,,---,0.00,VWS V14.01,2013-06-13 23:10:00,
2013-06-13 17:13:00,64.9,64.1,25.22,North,0,0.0,0.0,97,0.00,,---,0.00,VWS V14.01,2013-06-13 23:13:00,
2013-06-13 17:14:00,64.9,64.1,25.22,North,0,0.0,0.0,97,0.00,,---,0.00,VWS V14.01,2013-06-13 23:14:00,
2013-06-13 17:16:00,64.9,64.1,25.22,North,0,0.0,0.0,97,0.00,,---,0.00,VWS V14.01,2013-06-13 23:16:00,
2013-06-13 17:19:00,64.9,64.1,25.22,North,0,0.0,0.0,97,0.00,,---,0.00,VWS V14.01,2013-06-13 23:19:00,
2013-06-13 17:20:00,65.1,64.2,25.22,North,0,0.0,0.0,97,0.00,,---,0.00,VWS V14.01,2013-06-13 23:20:00,
2013-06-13 17:22:00,65.1,64.2,25.22,North,0,0.0,0.0,97,0.00,,---,0.00,VWS V14.01,2013-06-13 23:22:00,
2013-06-13 17:26:00,65.1,64.2,25.22,North,0,0.0,0.0,97,0.00,,---,0.00,VWS V14.01,2013-06-13 23:26:00,
2013-06-13 17:28:00,65.1,64.2,25.22,North,0,0.0,0.0,97,0.00,,---,0.00,VWS V14.01,2013-06-13 23:28:00,
2013-06-13 17:29:00,65.1,64.2,25.22,North,0,0.0,0.0,97,0.00,,---,0.00,VWS V14.01,2013-06-13 23:29:00,
2013-06-13 17:30:00,65.1,64.2,25.22,North,0,0.0,0.0,97,0.00,,---,0.00,VWS V14.01,2013-06-13 23:30:00,
2013-06-13 17:31:00,65.1,64.2,25.25,North,0,0.0,0.0,97,0.00,,---,0.00,VWS V14.01,2013-06-13 23:31:00,
2013-06-13 17:34:00,65.1,64.2,25.25,North,0,0.0,0.0,97,0.00,,---,0.00,VWS V14.01,2013-06-13 23:34:00,
2013-06-13 17:36:00,64.9,64.1,25.25,SW,233,0.0,0.0,97,0.00,,---,0.00,VWS V14.01,2013-06-13 23:36:00,
2013-06-13 17:37:00,64.9,64.1,25.25,SW,233,0.0,0.0,97,0.00,,---,0.00,VWS V14.01,2013-06-13 23:37:00,
2013-06-13 17:39:00,64.9,64.1,25.25,SSW,213,0.0,0.0,97,0.00,,---,0.00,VWS V14.01,2013-06-13 23:39:00,
2013-06-13 17:41:00,64.8,63.9,25.25,SSW,213,0.0,0.0,97,0.00,,---,0.00,VWS V14.01,2013-06-13 23:41:00,
2013-06-13 17:44:00,64.8,63.9,25.25,SSW,213,0.0,0.0,97,0.00,,---,0.00,VWS V14.01,2013-06-13 23:44:00,
2013-06-13 17:45:00,64.8,63.9,25.25,SSW,213,0.0,0.0,97,0.00,,---,0.00,VWS V14.01,2013-06-13 23:45:00,
2013-06-13 17:48:00,64.8,63.9,25.25,SSW,212,0.0,0.0,97,0.00,,---,0.00,VWS V14.01,2013-06-13 23:48:00,
2013-06-13 17:51:00,64.6,63.7,25.25,SSW,212,0.0,0.0,97,0.00,,---,0.00,VWS V14.01,2013-06-13 23:51:00,
2013-06-13 17:52:00,64.6,63.7,25.25,SSW,212,0.0,0.0,97,0.00,,---,0.00,VWS V14.01,2013-06-13 23:52:00,
2013-06-13 17:53:00,64.6,63.7,25.25,SSW,212,0.0,0.0,97,0.00,,---,0.00,VWS V14.01,2013-06-13 23:53:00,
2013-06-13 17:55:00,64.4,63.5,25.25,SSW,212,0.0,0.0,97,0.00,,---,0.00,VWS V14.01,2013-06-13 23:55:00,
2013-06-13 17:57:00,64.4,63.5,25.25,SW,229,0.0,0.0,97,0.00,,---,0.00,VWS V14.01,2013-06-13 23:57:00,
2013-06-13 17:58:00,64.4,63.5,25.25,SW,229,0.0,0.0,97,0.00,,---,0.00,VWS V14.01,2013-06-13 23:58:00,
2013-06-13 18:00:00,64.4,63.5,25.25,SW,229,0.0,0.0,97,0.00,,---,0.00,VWS V14.01,2013-06-14 00:00:00,
2013-06-13 18:02:00,64.4,63.8,25.25,SW,229,0.0,0.0,98,0.00,,---,0.00,VWS V14.01,2013-06-14 00:02:00,
2013-06-13 18:04:00,64.4,63.8,25.25,SW,229,0.0,0.0,98,0.00,,---,0.00,VWS V14.01,2013-06-14 00:04:00,
2013-06-13 18:07:00,64.4,63.8,25.25,SW,229,0.0,0.0,98,0.00,,---,0.00,VWS V14.01,2013-06-14 00:07:00,
2013-06-13 18:08:00,64.4,63.8,25.25,SW,229,0.0,0.0,98,0.00,,---,0.00,VWS V14.01,2013-06-14 00:08:00,
2013-06-13 18:09:00,64.4,63.8,25.25,SW,229,0.0,0.0,98,0.00,,---,0.00,VWS V14.01,2013-06-14 00:09:00,
2013-06-13 18:10:00,64.4,63.8,25.25,SW,229,0.0,0.0,98,0.00,,---,0.00,VWS V14.01,2013-06-14 00:10:00,
2013-06-13 18:12:00,64.4,63.8,25.25,SW,229,0.0,0.0,98,0.00,,---,0.00,VWS V14.01,2013-06-14 00:12:00,
2013-06-13 18:14:00,64.4,63.8,25.25,SW,229,0.0,0.0,98,0.00,,---,0.00,VWS V14.01,2013-06-14 00:14:00,
2013-06-13 18:16:00,64.4,63.8,25.25,SW,229,0.0,0.0,98,0.00,,---,0.00,VWS V14.01,2013-06-14 00:16:00,
2013-06-13 18:18:00,64.4,63.8,25.25,SW,229,0.0,0.0,98,0.00,,---,0.00,VWS V14.01,2013-06-14 00:18:00,
2013-06-13 18:19:00,64.6,64.0,25.25,SW,229,0.0,0.0,98,0.00,,---,0.00,VWS V14.01,2013-06-14 00:19:00,
2013-06-13 18:20:00,64.6,64.0,25.25,SW,229,0.0,0.0,98,0.00,,---,0.00,VWS V14.01,2013-06-14 00:20:00,
2013-06-13 18:22:00,64.6,64.0,25.25,SW,229,0.0,0.0,98,0.00,,---,0.00,VWS V14.01,2013-06-14 00:22:00,
2013-06-13 18:23:00,64.6,64.0,25.25,East,94,4.0,4.0,98,0.00,,---,0.00,VWS V14.01,2013-06-14 00:23:00,
2013-06-13 18:25:00,64.6,64.0,25.25,ESE,115,5.8,8.1,98,0.00,,---,0.00,VWS V14.01,2013-06-14 00:25:00,
2013-06-13 18:26:00,64.4,63.8,25.25,East,80,3.1,5.8,98,0.00,,---,0.00,VWS V14.01,2013-06-14 00:26:00,
2013-06-13 18:29:00,64.4,63.8,25.25,East,100,3.1,4.9,98,0.00,,---,0.00,VWS V14.01,2013-06-14 00:29:00,
2013-06-13 18:31:00,64.4,63.8,25.25,ESE,111,4.9,6.3,98,0.00,,---,0.00,VWS V14.01,2013-06-14 00:31:00,
2013-06-13 18:32:00,64.4,63.8,25.25,East,86,3.1,6.3,98,0.00,,---,0.00,VWS V14.01,2013-06-14 00:32:00,
2013-06-13 18:33:00,64.4,63.8,25.25,East,87,0.0,3.1,98,0.00,,---,0.00,VWS V14.01,2013-06-14 00:33:00,
2013-06-13 18:37:00,64.4,63.8,25.25,SE,124,0.0,4.0,98,0.00,,---,0.00,VWS V14.01,2013-06-14 00:37:00,
2013-06-13 18:39:00,64.4,63.8,25.25,ESE,120,0.0,2.7,98,0.00,,---,0.00,VWS V14.01,2013-06-14 00:39:00,
2013-06-13 18:40:00,64.4,63.8,25.25,ENE,64,5.8,8.3,98,0.00,,---,0.00,VWS V14.01,2013-06-14 00:40:00,
2013-06-13 18:41:00,64.4,63.8,25.25,East,83,0.0,5.8,98,0.00,,---,0.00,VWS V14.01,2013-06-14 00:41:00,
2013-06-13 18:43:00,64.2,63.7,25.25,SE,125,2.7,3.6,98,0.00,,---,0.00,VWS V14.01,2013-06-14 00:43:00,
2013-06-13 18:46:00,64.2,63.7,25.25,ESE,117,3.1,3.1,98,0.00,,---,0.00,VWS V14.01,2013-06-14 00:46:00,
2013-06-13 18:47:00,64.2,63.7,25.25,ESE,122,3.6,5.4,98,0.00,,---,0.00,VWS V14.01,2013-06-14 00:47:00,
2013-06-13 18:49:00,64.2,63.7,25.25,SSW,193,4.9,6.3,98,0.00,,---,0.00,VWS V14.01,2013-06-14 00:49:00,
2013-06-13 18:51:00,64.0,63.5,25.25,SE,131,4.9,5.4,98,0.00,,---,0.00,VWS V14.01,2013-06-14 00:51:00,
2013-06-13 18:52:00,64.0,63.5,25.25,SE,146,2.2,4.9,98,0.00,,---,0.00,VWS V14.01,2013-06-14 00:52:00,
2013-06-13 18:54:00,63.9,63.3,25.25,SSE,152,3.1,3.6,98,0.00,,---,0.00,VWS V14.01,2013-06-14 00:54:00,
2013-06-13 18:55:00,63.9,63.3,25.25,SE,129,2.7,3.1,98,0.00,,---,0.00,VWS V14.01,2013-06-14 00:55:00,
2013-06-13 18:58:00,63.9,63.3,25.25,South,177,0.0,4.0,98,0.00,,---,0.00,VWS V14.01,2013-06-14 00:58:00,
2013-06-13 18:59:00,63.7,63.1,25.25,South,191,2.7,4.9,98,0.00,,---,0.00,VWS V14.01,2013-06-14 00:59:00,
2013-06-13 19:01:00,63.7,63.1,25.25,South,191,0.0,0.0,98,0.00,,---,0.00,VWS V14.01,2013-06-14 01:01:00,
2013-06-13 19:02:00,63.7,63.1,25.25,South,181,0.0,0.0,98,0.00,,---,0.00,VWS V14.01,2013-06-14 01:02:00,
2013-06-13 19:05:00,63.5,62.9,25.25,SSW,195,0.0,2.2,98,0.00,,---,0.00,VWS V14.01,2013-06-14 01:05:00,
2013-06-13 19:07:00,63.5,62.9,25.25,SW,223,2.7,2.7,98,0.00,,---,0.00,VWS V14.01,2013-06-14 01:07:00,
2013-06-13 19:08:00,63.3,62.8,25.25,SW,224,2.2,2.7,98,0.00,,---,0.00,VWS V14.01,2013-06-14 01:08:00,
2013-06-13 19:09:00,63.3,62.8,25.25,WSW,241,3.1,4.0,98,0.00,,---,0.00,VWS V14.01,2013-06-14 01:09:00,
2013-06-13 19:10:00,63.3,62.8,25.25,SW,232,4.0,4.0,98,0.00,,---,0.00,VWS V14.01,2013-06-14 01:10:00,
2013-06-13 19:14:00,63.1,62.0,25.25,SW,226,4.0,6.3,96,0.00,,---,0.00,VWS V14.01,2013-06-14 01:14:00,
2013-06-13 19:17:00,63.3,61.9,25.25,SSW,205,4.9,5.8,95,0.00,,---,0.00,VWS V14.01,2013-06-14 01:17:00,
2013-06-13 19:18:00,63.3,61.6,25.25,WSW,248,4.9,4.9,94,0.00,,---,0.00,VWS V14.01,2013-06-14 01:18:00,
2013-06-13 19:21:00,63.5,61.1,25.25,SW,221,2.2,2.7,92,0.00,,---,0.00,VWS V14.01,2013-06-14 01:21:00,
2013-06-13 19:23:00,63.5,61.1,25.25,SSW,210,4.0,4.0,92,0.00,,---,0.00,VWS V14.01,2013-06-14 01:23:00,
2013-06-13 19:24:00,63.5,60.8,25.25,SSE,154,0.0,4.0,91,0.00,,---,0.00,VWS V14.01,2013-06-14 01:24:00,
2013-06-13 19:26:00,63.5,60.8,25.25,SSW,200,3.1,3.1,91,0.00,,---,0.00,VWS V14.01,2013-06-14 01:26:00,
2013-06-13 19:27:00,63.5,60.5,25.25,South,183,2.2,3.1,90,0.00,,---,0.00,VWS V14.01,2013-06-14 01:27:00,
2013-06-13 19:29:00,63.5,60.5,25.25,SW,229,2.7,3.1,90,0.00,,---,0.00,VWS V14.01,2013-06-14 01:29:00,
2013-06-13 19:30:00,63.5,60.5,25.25,SW,226,2.2,3.1,90,0.00,,---,0.00,VWS V14.01,2013-06-14 01:30:00,
2013-06-13 19:31:00,63.5,60.5,25.25,SW,226,0.0,2.2,90,0.00,,---,0.00,VWS V14.01,2013-06-14 01:31:00,
2013-06-13 19:33:00,63.5,60.5,25.25,SW,223,2.2,2.2,90,0.00,,---,0.00,VWS V14.01,2013-06-14 01:33:00,
2013-06-13 19:35:00,63.5,60.5,25.25,SW,216,0.0,0.0,90,0.00,,---,0.00,VWS V14.01,2013-06-14 01:35:00,
2013-06-13 19:36:00,63.5,60.5,25.25,SSW,213,0.0,0.0,90,0.00,,---,0.00,VWS V14.01,2013-06-14 01:36:00,
2013-06-13 19:39:00,63.3,60.3,25.25,SW,217,0.0,0.0,90,0.00,,---,0.00,VWS V14.01,2013-06-14 01:39:00,
2013-06-13 19:40:00,63.3,60.3,25.25,SW,217,0.0,0.0,90,0.00,,---,0.00,VWS V14.01,2013-06-14 01:40:00,
2013-06-13 19:41:00,63.3,60.3,25.25,SW,217,0.0,0.0,90,0.00,,---,0.00,VWS V14.01,2013-06-14 01:41:00,
2013-06-13 19:45:00,63.3,60.3,25.25,SW,217,0.0,0.0,90,0.00,,---,0.00,VWS V14.01,2013-06-14 01:45:00,
2013-06-13 19:46:00,63.3,60.3,25.25,SW,217,0.0,0.0,90,0.00,,---,0.00,VWS V14.01,2013-06-14 01:46:00,
2013-06-13 19:49:00,63.1,60.2,25.25,SSE,165,2.2,2.2,90,0.00,,---,0.00,VWS V14.01,2013-06-14 01:49:00,
2013-06-13 19:53:00,63.1,60.2,25.25,SSE,166,0.0,0.0,90,0.00,,---,0.00,VWS V14.01,2013-06-14 01:53:00,
2013-06-13 19:54:00,63.1,60.2,25.25,SSE,166,0.0,0.0,90,0.00,,---,0.00,VWS V14.01,2013-06-14 01:54:00,
2013-06-13 19:56:00,63.1,60.2,25.25,SSE,166,0.0,0.0,90,0.00,,---,0.00,VWS V14.01,2013-06-14 01:56:00,
2013-06-13 19:58:00,63.1,60.2,25.25,SSE,166,0.0,0.0,90,0.00,,---,0.00,VWS V14.01,2013-06-14 01:58:00,
2013-06-13 20:03:00,63.3,60.7,25.25,SW,215,0.0,0.0,91,0.00,,---,0.00,VWS V14.01,2013-06-14 02:03:00,
2013-06-13 20:04:00,63.3,60.7,25.25,SW,215,0.0,0.0,91,0.00,,---,0.00,VWS V14.01,2013-06-14 02:04:00,
2013-06-13 20:05:00,63.3,60.7,25.25,SE,131,2.2,2.2,91,0.00,,---,0.00,VWS V14.01,2013-06-14 02:05:00,
2013-06-13 20:06:00,63.3,60.3,25.25,SE,131,2.2,2.2,90,0.00,,---,0.00,VWS V14.01,2013-06-14 02:06:00,
2013-06-13 20:10:00,63.5,60.5,25.25,East,89,0.0,0.0,90,0.00,,---,0.00,VWS V14.01,2013-06-14 02:10:00,
2013-06-13 20:11:00,63.5,60.5,25.25,SE,124,0.0,0.0,90,0.00,,---,0.00,VWS V14.01,2013-06-14 02:11:00,
2013-06-13 20:13:00,63.5,60.5,25.25,SE,127,0.0,0.0,90,0.00,,---,0.00,VWS V14.01,2013-06-14 02:13:00,
2013-06-13 20:14:00,63.5,60.5,25.25,SE,127,0.0,0.0,90,0.00,,---,0.00,VWS V14.01,2013-06-14 02:14:00,
2013-06-13 20:17:00,64.0,60.4,25.25,ESE,123,0.0,0.0,88,0.00,,---,0.00,VWS V14.01,2013-06-14 02:17:00,
2013-06-13 20:20:00,64.0,58.8,25.28,ESE,123,0.0,0.0,83,0.00,,---,0.00,VWS V14.01,2013-06-14 02:20:00,
2013-06-13 20:21:00,64.0,58.8,25.28,ESE,123,0.0,0.0,83,0.00,,---,0.00,VWS V14.01,2013-06-14 02:21:00,
2013-06-13 20:24:00,64.4,58.1,25.28,ESE,123,0.0,0.0,80,0.00,,---,0.00,VWS V14.01,2013-06-14 02:24:00,
2013-06-13 20:26:00,64.4,58.1,25.28,ESE,123,0.0,0.0,80,0.00,,---,0.00,VWS V14.01,2013-06-14 02:26:00,
2013-06-13 20:27:00,64.4,58.1,25.28,ESE,123,0.0,0.0,80,0.00,,---,0.00,VWS V14.01,2013-06-14 02:27:00,
2013-06-13 20:29:00,64.4,58.1,25.28,ESE,112,5.8,5.8,80,0.00,,---,0.00,VWS V14.01,2013-06-14 02:29:00,
2013-06-13 20:31:00,64.2,57.6,25.28,NE,47,4.0,5.8,79,0.00,,---,0.00,VWS V14.01,2013-06-14 02:31:00,
2013-06-13 20:33:00,64.2,57.6,25.28,SE,125,4.9,4.9,79,0.00,,---,0.00,VWS V14.01,2013-06-14 02:33:00,
2013-06-13 20:34:00,64.2,57.6,25.28,SE,125,4.9,4.9,79,0.00,,---,0.00,VWS V14.01,2013-06-14 02:34:00,
2013-06-13 20:35:00,64.4,57.4,25.28,SE,125,4.9,4.9,78,0.00,,---,0.00,VWS V14.01,2013-06-14 02:35:00,
2013-06-13 20:37:00,64.4,57.4,25.28,SE,125,4.9,4.9,78,0.00,,---,0.00,VWS V14.01,2013-06-14 02:37:00,
2013-06-13 20:38:00,64.4,57.4,25.28,SE,125,4.9,4.9,78,0.00,,---,0.00,VWS V14.01,2013-06-14 02:38:00,
2013-06-13 20:40:00,64.4,57.4,25.28,SE,125,4.9,4.9,78,0.00,,---,0.00,VWS V14.01,2013-06-14 02:40:00,
2013-06-13 20:41:00,64.4,57.4,25.28,SE,125,4.9,4.9,78,0.00,,---,0.00,VWS V14.01,2013-06-14 02:41:00,
2013-06-13 20:42:00,64.4,57.4,25.28,SE,127,6.3,6.3,78,0.00,,---,0.00,VWS V14.01,2013-06-14 02:42:00,
2013-06-13 20:44:00,64.4,57.8,25.28,ENE,60,2.7,5.4,79,0.00,,---,0.00,VWS V14.01,2013-06-14 02:44:00,
2013-06-13 20:46:00,64.4,57.8,25.28,East,94,4.0,4.0,79,0.00,,---,0.00,VWS V14.01,2013-06-14 02:46:00,
2013-06-13 20:49:00,64.4,57.8,25.25,East,94,4.0,4.0,79,0.00,,---,0.00,VWS V14.01,2013-06-14 02:49:00,
2013-06-13 20:52:00,64.4,57.8,25.25,ESE,118,3.1,4.0,79,0.00,,---,0.00,VWS V14.01,2013-06-14 02:52:00,
2013-06-13 20:53:00,64.4,57.8,25.25,ESE,118,3.1,3.1,79,0.00,,---,0.00,VWS V14.01,2013-06-14 02:53:00,
2013-06-13 20:55:00,64.2,57.9,25.25,ESE,118,3.1,3.1,80,0.00,,---,0.00,VWS V14.01,2013-06-14 02:55:00,
2013-06-13 20:58:00,64.0,57.8,25.25,ENE,76,2.2,2.2,80,0.00,,---,0.00,VWS V14.01,2013-06-14 02:58:00,
2013-06-13 20:59:00,64.0,57.8,25.25,SE,125,0.0,2.2,80,0.00,,---,0.00,VWS V14.01,2013-06-14 02:59:00,
2013-06-13 21:01:00,63.9,57.9,25.25,SE,125,0.0,0.0,81,0.00,,---,0.00,VWS V14.01,2013-06-14 03:01:00,
2013-06-13 21:02:00,63.9,57.9,25.25,SE,125,0.0,0.0,81,0.00,,---,0.00,VWS V14.01,2013-06-14 03:02:00,
2013-06-13 21:03:00,63.7,57.8,25.25,SSW,213,2.2,2.2,81,0.00,,---,0.00,VWS V14.01,2013-06-14 03:03:00,
2013-06-13 21:06:00,63.7,57.8,25.25,SW,217,2.7,2.7,81,0.00,,---,0.00,VWS V14.01,2013-06-14 03:06:00,
2013-06-13 21:09:00,63.7,57.8,25.25,South,183,0.0,0.0,81,0.00,,---,0.00,VWS V14.01,2013-06-14 03:09:00,
2013-06-13 21:12:00,63.1,57.6,25.25,South,183,0.0,0.0,82,0.00,,---,0.00,VWS V14.01,2013-06-14 03:12:00,
2013-06-13 21:13:00,63.1,57.6,25.25,South,183,0.0,0.0,82,0.00,,---,0.00,VWS V14.01,2013-06-14 03:13:00,
2013-06-13 21:14:00,63.1,57.6,25.25,South,183,0.0,0.0,82,0.00,,---,0.00,VWS V14.01,2013-06-14 03:14:00,
2013-06-13 21:16:00,63.1,57.6,25.25,South,183,0.0,0.0,82,0.00,,---,0.00,VWS V14.01,2013-06-14 03:16:00,
2013-06-13 21:17:00,63.1,57.6,25.25,SSW,198,2.2,2.2,82,0.00,,---,0.00,VWS V14.01,2013-06-14 03:17:00,
2013-06-13 21:19:00,62.8,57.5,25.25,SSW,198,0.0,2.2,83,0.00,,---,0.00,VWS V14.01,2013-06-14 03:19:00,
2013-06-13 21:20:00,62.8,57.9,25.25,SSW,198,0.0,0.0,84,0.00,,---,0.00,VWS V14.01,2013-06-14 03:20:00,
2013-06-13 21:21:00,62.8,57.9,25.25,SSW,198,0.0,0.0,84,0.00,,---,0.00,VWS V14.01,2013-06-14 03:21:00,
2013-06-13 21:22:00,62.8,57.9,25.25,WSW,254,0.0,0.0,84,0.00,,---,0.00,VWS V14.01,2013-06-14 03:22:00,
2013-06-13 21:24:00,62.8,57.9,25.25,WSW,247,2.7,2.7,84,0.00,,---,0.00,VWS V14.01,2013-06-14 03:24:00,
2013-06-13 21:27:00,62.6,58.0,25.25,WSW,241,0.0,0.0,85,0.00,,---,0.00,VWS V14.01,2013-06-14 03:27:00,
2013-06-13 21:29:00,62.6,58.0,25.25,WSW,241,0.0,0.0,85,0.00,,---,0.00,VWS V14.01,2013-06-14 03:29:00,
2013-06-13 21:31:00,62.6,58.0,25.25,WSW,241,0.0,0.0,85,0.00,,---,0.00,VWS V14.01,2013-06-14 03:31:00,
2013-06-13 21:36:00,62.4,58.2,25.25,WSW,239,0.0,2.2,86,0.00,,---,0.00,VWS V14.01,2013-06-14 03:36:00,
2013-06-13 21:37:00,62.4,58.5,25.25,WSW,239,0.0,0.0,87,0.00,,---,0.00,VWS V14.01,2013-06-14 03:37:00,
2013-06-13 21:38:00,62.4,58.5,25.25,WSW,239,0.0,0.0,87,0.00,,---,0.00,VWS V14.01,2013-06-14 03:38:00,
2013-06-13 21:39:00,62.4,58.5,25.25,WSW,239,0.0,0.0,87,0.00,,---,0.00,VWS V14.01,2013-06-14 03:39:00,
2013-06-13 21:41:00,62.4,58.5,25.25,WSW,239,0.0,0.0,87,0.00,,---,0.00,VWS V14.01,2013-06-14 03:41:00,
2013-06-13 21:43:00,62.4,58.5,25.25,WSW,239,0.0,0.0,87,0.00,,---,0.00,VWS V14.01,2013-06-14 03:43:00,
2013-06-13 21:44:00,62.2,58.7,25.25,WSW,239,0.0,0.0,88,0.00,,---,0.00,VWS V14.01,2013-06-14 03:44:00,
2013-06-13 21:47:00,62.2,58.7,25.25,WSW,239,0.0,0.0,88,0.00,,---,0.00,VWS V14.01,2013-06-14 03:47:00,
2013-06-13 21:50:00,62.1,58.5,25.25,SW,235,0.0,0.0,88,0.00,,---,0.00,VWS V14.01,2013-06-14 03:50:00,
2013-06-13 21:53:00,61.9,58.3,25.25,SW,235,0.0,0.0,88,0.00,,---,0.00,VWS V14.01,2013-06-14 03:53:00,
2013-06-13 21:54:00,61.9,58.3,25.25,SW,235,0.0,0.0,88,0.00,,---,0.00,VWS V14.01,2013-06-14 03:54:00,
2013-06-13 21:56:00,61.9,58.3,25.25,SW,235,0.0,0.0,88,0.00,,---,0.00,VWS V14.01,2013-06-14 03:56:00,
2013-06-13 21:57:00,61.9,58.3,25.25,SW,228,2.2,2.2,88,0.00,,---,0.00,VWS V14.01,2013-06-14 03:57:00,
2013-06-13 22:00:00,61.9,58.3,25.25,WSW,251,0.0,0.0,88,0.00,,---,0.00,VWS V14.01,2013-06-14 04:00:00,
2013-06-13 22:01:00,62.1,58.8,25.25,WSW,251,0.0,0.0,89,0.00,,---,0.00,VWS V14.01,2013-06-14 04:01:00,
2013-06-13 22:02:00,62.1,58.8,25.25,WNW,290,0.0,0.0,89,0.00,,---,0.00,VWS V14.01,2013-06-14 04:02:00,
2013-06-13 22:04:00,62.1,58.8,25.25,West,280,0.0,0.0,89,0.00,,---,0.00,VWS V14.01,2013-06-14 04:04:00,
2013-06-13 22:06:00,62.1,58.8,25.25,West,280,0.0,0.0,89,0.00,,---,0.00,VWS V14.01,2013-06-14 04:06:00,
2013-06-13 22:09:00,62.1,58.8,25.25,ESE,121,3.1,3.1,89,0.00,,---,0.00,VWS V14.01,2013-06-14 04:09:00,
2013-06-13 22:13:00,62.2,59.3,25.25,SE,139,0.0,0.0,90,0.00,,---,0.00,VWS V14.01,2013-06-14 04:13:00,
2013-06-13 22:15:00,62.2,59.3,25.25,SSE,160,0.0,0.0,90,0.00,,---,0.00,VWS V14.01,2013-06-14 04:15:00,
2013-06-13 22:16:00,62.1,59.1,25.25,SSE,160,0.0,0.0,90,0.00,,---,0.00,VWS V14.01,2013-06-14 04:16:00,
2013-06-13 22:17:00,62.1,59.1,25.25,SSE,160,0.0,0.0,90,0.00,,---,0.00,VWS V14.01,2013-06-14 04:17:00,
2013-06-13 22:18:00,62.1,59.1,25.25,SSE,160,0.0,0.0,90,0.00,,---,0.00,VWS V14.01,2013-06-14 04:18:00,
2013-06-13 22:20:00,62.1,59.1,25.25,SSE,160,2.2,2.2,90,0.00,,---,0.00,VWS V14.01,2013-06-14 04:20:00,
2013-06-13 22:21:00,62.1,59.1,25.25,SSE,160,2.2,2.2,90,0.00,,---,0.00,VWS V14.01,2013-06-14 04:21:00,
2013-06-13 22:25:00,61.9,58.9,25.25,SSE,160,0.0,2.2,90,0.00,,---,0.00,VWS V14.01,2013-06-14 04:25:00,
2013-06-13 22:26:00,61.9,58.9,25.25,SSE,160,0.0,0.0,90,0.00,,---,0.00,VWS V14.01,2013-06-14 04:26:00,
2013-06-13 22:29:00,61.7,58.7,25.25,SSE,160,0.0,0.0,90,0.00,,---,0.00,VWS V14.01,2013-06-14 04:29:00,
2013-06-13 22:30:00,61.7,58.7,25.25,SSE,160,0.0,0.0,90,0.00,,---,0.00,VWS V14.01,2013-06-14 04:30:00,
2013-06-13 22:31:00,61.7,58.7,25.25,SSE,160,0.0,0.0,90,0.00,,---,0.00,VWS V14.01,2013-06-14 04:31:00,
2013-06-13 22:32:00,61.7,58.7,25.25,SSE,160,0.0,0.0,90,0.00,,---,0.00,VWS V14.01,2013-06-14 04:32:00,
2013-06-13 22:33:00,61.7,58.7,25.25,SSE,160,0.0,0.0,90,0.00,,---,0.00,VWS V14.01,2013-06-14 04:33:00,
2013-06-13 22:37:00,61.5,58.6,25.25,SSE,150,0.0,0.0,90,0.00,,---,0.00,VWS V14.01,2013-06-14 04:37:00,
2013-06-13 22:39:00,61.5,58.6,25.25,SSE,150,0.0,0.0,90,0.00,,---,0.00,VWS V14.01,2013-06-14 04:39:00,
2013-06-13 22:41:00,61.5,58.6,25.25,SSE,150,0.0,0.0,90,0.00,,---,0.00,VWS V14.01,2013-06-14 04:41:00,
2013-06-13 22:42:00,61.5,58.6,25.25,SSE,150,0.0,0.0,90,0.00,,---,0.00,VWS V14.01,2013-06-14 04:42:00,
2013-06-13 22:43:00,61.5,58.6,25.25,SSE,150,0.0,0.0,90,0.00,,---,0.00,VWS V14.01,2013-06-14 04:43:00,
2013-06-13 22:46:00,61.5,58.2,25.25,SSE,150,0.0,0.0,89,0.00,,---,0.00,VWS V14.01,2013-06-14 04:46:00,
2013-06-13 22:47:00,61.5,58.2,25.25,SSE,150,0.0,0.0,89,0.00,,---,0.00,VWS V14.01,2013-06-14 04:47:00,
2013-06-13 22:49:00,61.3,58.1,25.25,SSE,150,0.0,0.0,89,0.00,,---,0.00,VWS V14.01,2013-06-14 04:49:00,
2013-06-13 22:51:00,61.3,58.1,25.25,South,183,0.0,0.0,89,0.00,,---,0.00,VWS V14.01,2013-06-14 04:51:00,
2013-06-13 22:55:00,61.3,58.1,25.25,South,182,0.0,0.0,89,0.00,,---,0.00,VWS V14.01,2013-06-14 04:55:00,
2013-06-13 22:57:00,61.3,58.1,25.25,South,182,0.0,0.0,89,0.00,,---,0.00,VWS V14.01,2013-06-14 04:57:00,
2013-06-13 22:58:00,61.3,58.1,25.25,SSE,158,3.6,3.6,89,0.00,,---,0.00,VWS V14.01,2013-06-14 04:58:00,
2013-06-13 23:02:00,61.3,58.1,25.25,SSE,158,0.0,0.0,89,0.00,,---,0.00,VWS V14.01,2013-06-14 05:02:00,
2013-06-13 23:03:00,61.3,58.1,25.25,SSE,158,0.0,0.0,89,0.00,,---,0.00,VWS V14.01,2013-06-14 05:03:00,
2013-06-13 23:05:00,61.3,58.1,25.25,SSE,158,0.0,0.0,89,0.00,,---,0.00,VWS V14.01,2013-06-14 05:05:00,
2013-06-13 23:07:00,61.3,58.1,25.25,SSE,158,0.0,0.0,89,0.00,,---,0.00,VWS V14.01,2013-06-14 05:07:00,
2013-06-13 23:08:00,61.3,58.1,25.25,SSE,158,0.0,0.0,89,0.00,,---,0.00,VWS V14.01,2013-06-14 05:08:00,
2013-06-13 23:09:00,61.9,58.9,25.25,SSE,158,0.0,0.0,90,0.00,,---,0.00,VWS V14.01,2013-06-14 05:09:00,
2013-06-13 23:11:00,61.9,58.9,25.25,SSE,158,0.0,0.0,90,0.00,,---,0.00,VWS V14.01,2013-06-14 05:11:00,
2013-06-13 23:12:00,61.9,58.9,25.25,SSE,158,0.0,0.0,90,0.00,,---,0.00,VWS V14.01,2013-06-14 05:12:00,
2013-06-13 23:14:00,61.9,58.9,25.25,SSE,158,0.0,0.0,90,0.00,,---,0.00,VWS V14.01,2013-06-14 05:14:00,
2013-06-13 23:16:00,61.9,58.9,25.25,SSE,158,0.0,0.0,90,0.00,,---,0.00,VWS V14.01,2013-06-14 05:16:00,
2013-06-13 23:18:00,62.1,58.8,25.25,SSW,211,2.7,2.7,89,0.00,,---,0.00,VWS V14.01,2013-06-14 05:18:00,
2013-06-13 23:19:00,62.1,58.5,25.25,SSW,211,2.7,2.7,88,0.00,,---,0.00,VWS V14.01,2013-06-14 05:19:00,
2013-06-13 23:21:00,62.1,58.5,25.25,SSW,211,0.0,2.7,88,0.00,,---,0.00,VWS V14.01,2013-06-14 05:21:00,
2013-06-13 23:22:00,62.1,58.5,25.25,SSW,211,0.0,0.0,88,0.00,,---,0.00,VWS V14.01,2013-06-14 05:22:00,
2013-06-13 23:23:00,62.1,58.2,25.25,SSW,211,0.0,0.0,87,0.00,,---,0.00,VWS V14.01,2013-06-14 05:23:00,
2013-06-13 23:26:00,62.1,58.2,25.25,SSW,211,0.0,0.0,87,0.00,,---,0.00,VWS V14.01,2013-06-14 05:26:00,
2013-06-13 23:28:00,62.1,58.2,25.25,SSW,211,0.0,0.0,87,0.00,,---,0.00,VWS V14.01,2013-06-14 05:28:00,
2013-06-13 23:29:00,62.1,58.2,25.25,SSW,211,0.0,0.0,87,0.00,,---,0.00,VWS V14.01,2013-06-14 05:29:00,
2013-06-13 23:31:00,61.9,58.0,25.25,SSW,211,0.0,0.0,87,0.00,,---,0.00,VWS V14.01,2013-06-14 05:31:00,
2013-06-13 23:33:00,61.9,58.0,25.25,SSW,211,0.0,0.0,87,0.00,,---,0.00,VWS V14.01,2013-06-14 05:33:00,
2013-06-13 23:36:00,61.9,58.3,25.22,SSW,211,0.0,0.0,88,0.00,,---,0.00,VWS V14.01,2013-06-14 05:36:00,
2013-06-13 23:37:00,61.9,58.3,25.22,SSW,211,0.0,0.0,88,0.00,,---,0.00,VWS V14.01,2013-06-14 05:37:00,
2013-06-13 23:39:00,61.9,58.3,25.22,SSW,211,0.0,0.0,88,0.00,,---,0.00,VWS V14.01,2013-06-14 05:39:00,
2013-06-13 23:40:00,61.9,58.3,25.22,SSW,211,0.0,0.0,88,0.00,,---,0.00,VWS V14.01,2013-06-14 05:40:00,
2013-06-13 23:42:00,61.9,58.3,25.22,SSW,211,0.0,0.0,88,0.00,,---,0.00,VWS V14.01,2013-06-14 05:42:00,
2013-06-13 23:43:00,61.9,58.3,25.22,SSW,211,0.0,0.0,88,0.00,,---,0.00,VWS V14.01,2013-06-14 05:43:00,
2013-06-13 23:48:00,61.5,57.9,25.22,SSW,211,0.0,0.0,88,0.00,,---,0.00,VWS V14.01,2013-06-14 05:48:00,
2013-06-13 23:49:00,61.5,57.9,25.22,SSW,211,0.0,0.0,88,0.00,,---,0.00,VWS V14.01,2013-06-14 05:49:00,
2013-06-13 23:50:00,61.5,57.9,25.22,SSW,211,0.0,0.0,88,0.00,,---,0.00,VWS V14.01,2013-06-14 05:50:00,
2013-06-13 23:51:00,61.5,57.9,25.22,SSW,211,0.0,0.0,88,0.00,,---,0.00,VWS V14.01,2013-06-14 05:51:00,
2013-06-13 23:52:00,61.5,57.9,25.22,SSW,211,0.0,0.0,88,0.00,,---,0.00,VWS V14.01,2013-06-14 05:52:00,
2013-06-13 23:54:00,61.5,57.9,25.25,SSW,211,0.0,0.0,88,0.00,,---,0.00,VWS V14.01,2013-06-14 05:54:00,
2013-06-13 23:56:00,61.5,57.9,25.25,SSW,211,0.0,0.0,88,0.00,,---,0.00,VWS V14.01,2013-06-14 05:56:00,
2013-06-13 23:59:00,61.5,57.9,25.25,SSW,211,0.0,0.0,88,0.00,,---,0.00,VWS V14.01,2013-06-14 05:59:00,